Gonzales Roger M. Dreyer Memo, TX

2:39 AM CST on December 16, 2019 (GMT -0600)
Gonzales Roger M. Dreyer Memo

Weather History for KT20 - October, 2019

Change the Weather History Date:

Saturday, October 19, 2019

  Actual Average (WUND) Record (WUND)
Temperature  
Mean Temperature 80 °F -  
Max Temperature 92 °F - - (-1)
Min Temperature 67 °F - - (-1)
Cooling Degree Days 14    
Growing Degree Days 30 (Base 50)    
Moisture  
Dew Point 69 °F    
Average Humidity 76    
Maximum Humidity 100    
Minimum Humidity 43    
Precipitation  
Precipitation 0.00 in - - ()
Sea Level Pressure  
Sea Level Pressure 29.75 in    
Wind  
Wind Speed 4 mph (South)    
Max Wind Speed 9 mph    
Max Gust Speed 16 mph    
Visibility 8 miles    
Events      
Averages and records for this station are not official NWS values.
T = Trace of Precipitation, MM = Missing Value Source: NWS Daily Summary

Daily Weather History Graph

Daily Weather History Graph

Search for Another Location

Airport or City:

Astronomy

Oct. 19, 2019 Rise Set
Actual Time 7:33 AM CDT 6:55 PM CDT
Civil Twilight 7:09 AM CDT 7:19 PM CDT
Nautical Twilight 6:41 AM CDT 7:47 PM CDT
Astronomical Twilight 6:14 AM CDT 8:14 PM CDT
Moon 11:23 PM CDT (10/19) 12:49 PM CDT (10/19)
Length of Visible Light 12h 09m
Length of Day
11h 21m
Waning Gibbous, 69% of the Moon is Illuminated
Oct 19
Waning Gibbous
Oct 21
Last Quarter
Oct 27
New
Nov 4
First Quarter
Nov 12
Full

Hourly Weather History & Observations

Time (CDT) Temp. Heat Index Dew Point Humidity Pressure Visibility Wind Dir Wind Speed Gust Speed Precip Events Conditions
12:15 AM 68.4 °F - 66.6 °F 94% 29.76 in 10.0 mi SSE 6.9 mph - N/A   Clear
12:35 AM 68.0 °F - 66.7 °F 96% 29.75 in 10.0 mi SSE 5.8 mph - N/A   Clear
12:55 AM 68.0 °F - 67.1 °F 97% 29.75 in 10.0 mi SSE 5.8 mph - N/A   Clear
1:15 AM 68.0 °F - 67.3 °F 98% 29.75 in 10.0 mi SSE 5.8 mph - N/A   Clear
1:35 AM 67.6 °F - 67.1 °F 98% 29.75 in 10.0 mi SSE 3.5 mph - N/A   Clear
1:55 AM 67.1 °F - 66.9 °F 99% 29.74 in 7.0 mi South 4.6 mph - N/A   Clear
2:15 AM 67.3 °F - 67.1 °F 99% 29.74 in 7.0 mi South 4.6 mph - N/A   Clear
2:35 AM 67.6 °F - 67.6 °F 100% 29.73 in 7.0 mi SSE 5.8 mph - N/A   Clear
2:55 AM 68.0 °F - 68.0 °F 100% 29.74 in 7.0 mi South 4.6 mph - N/A   Clear
3:15 AM 67.3 °F - 67.3 °F 100% 29.73 in 5.0 mi Calm Calm - N/A   Clear
3:35 AM 67.6 °F - 67.6 °F 100% 29.74 in 5.0 mi Calm Calm - N/A   Mostly Cloudy
3:55 AM 67.6 °F - 67.6 °F 100% 29.73 in 5.0 mi SE 3.5 mph - N/A   Mostly Cloudy
4:15 AM 67.5 °F - 67.5 °F 100% 29.74 in 5.0 mi Calm Calm - N/A   Mostly Cloudy
4:35 AM 67.6 °F - 67.6 °F 100% 29.74 in 5.0 mi Calm Calm - N/A   Overcast
4:55 AM 67.6 °F - 67.6 °F 100% 29.74 in 4.0 mi Calm Calm - N/A   Overcast
5:15 AM 68.0 °F - 68.0 °F 100% 29.74 in 5.0 mi Calm Calm - N/A   Overcast
5:35 AM 68.0 °F - 68.0 °F 100% 29.75 in 5.0 mi Calm Calm - N/A   Overcast
5:55 AM 68.2 °F - 68.2 °F 100% 29.76 in 4.0 mi Calm Calm - N/A   Overcast
6:15 AM 68.2 °F - 68.2 °F 100% 29.77 in 4.0 mi NNE 3.5 mph - N/A   Overcast
6:35 AM 68.5 °F - 68.5 °F 100% 29.77 in 5.0 mi NE 3.5 mph - N/A   Overcast
6:55 AM 68.7 °F - 68.7 °F 100% 29.77 in 5.0 mi Calm Calm - N/A   Overcast
7:15 AM 68.4 °F - 68.4 °F 100% 29.78 in 5.0 mi Calm Calm - N/A   Overcast
7:35 AM 68.4 °F - 68.4 °F 100% 29.78 in 4.0 mi Calm Calm - N/A   Overcast
7:55 AM 68.9 °F - 68.9 °F 100% 29.78 in 3.0 mi Calm Calm - N/A   Overcast
8:35 AM 69.8 °F - 69.8 °F 100% 29.79 in 4.0 mi SSE 3.5 mph - N/A   Overcast
8:55 AM 71.2 °F - 70.3 °F 97% 29.79 in 5.0 mi Calm Calm - N/A   Mostly Cloudy
9:15 AM 73.4 °F - 71.1 °F 92% 29.79 in 7.0 mi SE 3.5 mph - N/A   Scattered Clouds
9:35 AM 75.4 °F - 71.6 °F 88% 29.80 in 10.0 mi SE 3.5 mph - N/A   Clear
9:55 AM 76.8 °F - 72.1 °F 85% 29.80 in 10.0 mi Calm Calm - N/A   Clear
10:15 AM 77.4 °F - 71.8 °F 83% 29.81 in 10.0 mi SSW 4.6 mph - N/A   Scattered Clouds
10:35 AM 79.0 °F - 72.5 °F 80% 29.80 in 10.0 mi SW 5.8 mph - N/A   Overcast
10:55 AM 79.9 °F - 72.1 °F 77% 29.80 in 10.0 mi SW 6.9 mph - N/A   Overcast
11:15 AM 81.3 °F 85.9 °F 72.5 °F 74% 29.80 in 10.0 mi WSW 6.9 mph - N/A   Mostly Cloudy
11:35 AM 81.1 °F 85.4 °F 71.8 °F 73% 29.80 in 10.0 mi SW 8.1 mph - N/A   Mostly Cloudy
11:55 AM 83.7 °F 88.9 °F 71.8 °F 67% 29.80 in 10.0 mi WSW 8.1 mph - N/A   Mostly Cloudy
12:15 PM 83.7 °F 88.9 °F 71.6 °F 67% 29.79 in 10.0 mi WSW 8.1 mph - N/A   Mostly Cloudy
12:35 PM 85.5 °F 91.1 °F 71.8 °F 63% 29.79 in 10.0 mi SW 4.6 mph - N/A   Mostly Cloudy
12:55 PM 86.5 °F 92.9 °F 72.0 °F 62% 29.78 in 10.0 mi WSW 5.8 mph - N/A   Mostly Cloudy
1:15 PM 87.6 °F 94.3 °F 72.0 °F 60% 29.77 in 10.0 mi West 6.9 mph - N/A   Scattered Clouds
1:35 PM 88.7 °F 95.2 °F 71.8 °F 57% 29.77 in 10.0 mi WSW 8.1 mph 16.1 mph N/A   Clear
1:55 PM 89.6 °F 96.6 °F 71.8 °F 56% 29.75 in 10.0 mi NW 4.6 mph - N/A   Clear
2:15 PM 90.0 °F 95.9 °F 70.5 °F 53% 29.74 in 10.0 mi West 3.5 mph - N/A   Clear
2:35 PM 90.0 °F 95.0 °F 69.4 °F 51% 29.73 in 10.0 mi Calm Calm - N/A   Clear
2:55 PM 91.4 °F 96.3 °F 69.3 °F 48% 29.72 in 10.0 mi Calm Calm - N/A   Clear
3:15 PM 91.2 °F 95.5 °F 68.7 °F 47% 29.72 in 10.0 mi South 3.5 mph - N/A   Clear
3:35 PM 91.4 °F 94.9 °F 67.5 °F 45% 29.71 in 10.0 mi SW 4.6 mph - N/A   Clear
3:55 PM 91.6 °F 95.7 °F 67.8 °F 46% 29.71 in 10.0 mi Calm Calm - N/A   Clear
4:15 PM 91.9 °F 95.0 °F 66.6 °F 43% 29.71 in 10.0 mi WNW 3.5 mph - N/A   Clear
4:35 PM 91.6 °F 94.3 °F 66.4 °F 43% 29.70 in 10.0 mi Calm Calm - N/A   Clear
4:55 PM 92.1 °F 95.7 °F 67.5 °F 44% 29.70 in 10.0 mi Calm Calm - N/A   Clear
5:15 PM 92.3 °F 96.1 °F 67.3 °F 44% 29.70 in 10.0 mi Calm Calm - N/A   Clear
5:35 PM 91.6 °F 94.8 °F 66.7 °F 44% 29.70 in 10.0 mi Calm Calm - N/A   Clear
5:55 PM 91.4 °F 94.5 °F 66.4 °F 44% 29.71 in 10.0 mi Calm Calm - N/A   Clear
6:15 PM 90.9 °F 94.0 °F 66.9 °F 45% 29.71 in 10.0 mi Calm Calm - N/A   Clear
6:35 PM 88.7 °F 92.2 °F 67.6 °F 50% 29.71 in 10.0 mi Calm Calm - N/A   Clear
6:55 PM 86.2 °F 90.0 °F 68.9 °F 56% 29.71 in 10.0 mi SSE 5.8 mph - N/A   Scattered Clouds
7:15 PM 86.2 °F 89.7 °F 68.4 °F 55% 29.71 in 10.0 mi SSE 5.8 mph - N/A   Overcast
7:35 PM 86.0 °F 90.4 °F 69.4 °F 58% 29.72 in 10.0 mi SSE 6.9 mph - N/A   Overcast
7:55 PM 84.2 °F 88.4 °F 69.8 °F 62% 29.72 in 10.0 mi SE 4.6 mph - N/A   Mostly Cloudy
8:15 PM 82.9 °F 87.0 °F 70.0 °F 65% 29.73 in 10.0 mi SE 3.5 mph - N/A   Mostly Cloudy
8:35 PM 81.9 °F 85.8 °F 70.2 °F 68% 29.74 in 10.0 mi SSE 4.6 mph - N/A   Scattered Clouds
8:55 PM 82.2 °F 86.2 °F 70.3 °F 67% 29.74 in 10.0 mi SSE 9.2 mph - N/A   Clear
9:15 PM 81.5 °F 85.5 °F 71.1 °F 70% 29.75 in 10.0 mi SSE 6.9 mph - N/A   Clear
9:35 PM 80.2 °F 83.7 °F 70.9 °F 73% 29.75 in 10.0 mi South 8.1 mph - N/A   Clear
9:55 PM 80.1 °F 83.2 °F 70.0 °F 71% 29.77 in 10.0 mi South 6.9 mph - N/A   Clear
10:15 PM 79.0 °F - 69.8 °F 73% 29.77 in 10.0 mi South 5.8 mph - N/A   Clear
10:35 PM 78.3 °F - 69.8 °F 75% 29.78 in 10.0 mi South 4.6 mph - N/A   Clear
10:55 PM 77.9 °F - 69.4 °F 75% 29.78 in 10.0 mi South 5.8 mph - N/A   Clear
11:15 PM 77.0 °F - 69.4 °F 77% 29.79 in 10.0 mi South 4.6 mph - N/A   Clear
11:35 PM 76.1 °F - 69.8 °F 81% 29.79 in 10.0 mi South 3.5 mph - N/A   Clear
11:55 PM 75.2 °F - 69.8 °F 83% 29.78 in 10.0 mi South 5.8 mph - N/A   Clear